Overview Statistics Trail Chart Weather Telemetry Raw packets
 

This is the latest recevied weather packets stored in our database for station/object DO7LM-L8. If no packets are shown the sender has not sent any weather packets the latest 10 day(s).

<< 4 5 6 7 8 9 10 >>
Time Temp. Humidity Pressure Rain* Wind** Luminosity Snow
1788439215 19.44° C 65% 996.6 hPa - - - -
1788438314 19.44° C 64% 996.6 hPa - - - -
1788437413 20° C 62% 996.4 hPa - - - -
1788436513 20° C 61% 996.6 hPa - - - -
1788435612 20° C 60% 996.2 hPa - - - -
1788434711 20° C 59% 996.3 hPa - - - -
1788433810 19.44° C 58% 996.3 hPa - - - -
1788432910 19.44° C 57% 996.4 hPa - - - -
1788432010 19.44° C 57% 996.4 hPa - - - -
1788431108 19.44° C 57% 996.5 hPa - - - -
1788430207 19.44° C 57% 996.6 hPa - - - -
1788429307 19.44° C 57% 996.6 hPa - - - -
1788428407 18.89° C 57% 996.6 hPa - - - -
1788427506 18.89° C 56% 996.6 hPa - - - -
1788426606 18.33° C 57% 996.5 hPa - - - -
1788425705 18.33° C 57% 996.5 hPa - - - -
1788424805 18.33° C 57% 996.7 hPa - - - -
1788423904 18.33° C 57% 997 hPa - - - -
1788423004 18.33° C 57% 996.9 hPa - - - -
1788422103 17.78° C 57% 997.2 hPa - - - -
1788421203 17.78° C 57% 997.4 hPa - - - -
1788420302 17.78° C 57% 997.4 hPa - - - -
1788419401 17.78° C 57% 997.6 hPa - - - -
1788418501 17.78° C 57% 997.8 hPa - - - -
1788417600 17.22° C 57% 997.6 hPa - - - -

* Rain since midnight (hover to see other rain measurements)
** Current wind speed in m/s (hover to see current wind gust speed)